TimeGMT,TemperatureF,Dew PointF,Humidity,Sea Level PressureIn,VisibilityMPH,Wind Direction,Wind SpeedMPH,Gust SpeedMPH,PrecipitationIn,Events,Conditions,WindDirDegrees,DateUTC
12:00 AM,43,39,81,29.99,6,ESE,26.8,,,,Mist,120,2013-02-21 00:00:00
12:00 AM,42.8,39.2,87,29.95,5.6,ESE,26.5,-,N/A,,Mostly Cloudy,120,2013-02-21 00:00:00
12:30 AM,42.8,37.4,81,29.98,5.6,ESE,26.5,39.1,N/A,,Mostly Cloudy,120,2013-02-21 00:30:00
1:00 AM,42.8,37.4,81,29.98,5.6,ESE,25.3,38.0,N/A,,Mostly Cloudy,120,2013-02-21 01:00:00
1:30 AM,42.8,37.4,81,29.95,5.6,ESE,23.0,-,N/A,,Mostly Cloudy,120,2013-02-21 01:30:00
2:00 AM,42.8,37.4,81,29.95,5.6,ESE,24.2,-,N/A,,Mostly Cloudy,110,2013-02-21 02:00:00
2:30 AM,42.8,39.2,87,29.95,5.6,ESE,23.0,-,N/A,,Mostly Cloudy,110,2013-02-21 02:30:00
3:00 AM,42.8,39.2,87,29.95,5.6,ESE,21.9,33.4,N/A,,Mostly Cloudy,110,2013-02-21 03:00:00
3:30 AM,42.8,39.2,87,29.95,5.6,ESE,21.9,-,N/A,,Mostly Cloudy,120,2013-02-21 03:30:00
4:00 AM,42.8,39.2,87,29.95,5.6,ESE,19.6,-,N/A,,Mostly Cloudy,120,2013-02-21 04:00:00
4:30 AM,42.8,37.4,81,29.95,5.6,ESE,20.7,-,N/A,,Mostly Cloudy,120,2013-02-21 04:30:00
5:00 AM,42.8,39.2,87,29.95,6.2,ESE,21.9,-,N/A,,Mostly Cloudy,120,2013-02-21 05:00:00
5:30 AM,42.8,37.4,81,29.95,5.6,ESE,25.3,-,N/A,,Mostly Cloudy,120,2013-02-21 05:30:00
6:00 AM,43,39,79,29.97,6,ESE,24.6,,,,Mist,120,2013-02-21 06:00:00
6:00 AM,42.8,39.2,87,29.95,5.6,ESE,24.2,-,N/A,,Mostly Cloudy,120,2013-02-21 06:00:00
6:30 AM,42.8,37.4,81,29.95,5.6,ESE,24.2,-,N/A,,Mostly Cloudy,110,2013-02-21 06:30:00
7:00 AM,42.8,37.4,81,29.95,6.2,ESE,20.7,-,N/A,,Mostly Cloudy,120,2013-02-21 07:00:00
7:30 AM,41.0,35.6,81,29.95,6.2,ESE,27.6,-,N/A,,Mostly Cloudy,110,2013-02-21 07:30:00
8:00 AM,41.0,35.6,81,29.98,6.2,ESE,26.5,38.0,N/A,,Mostly Cloudy,110,2013-02-21 08:00:00
8:30 AM,41.0,35.6,81,29.98,6.2,ESE,24.2,-,N/A,,Overcast,120,2013-02-21 08:30:00
9:00 AM,41.0,35.6,81,29.98,6.2,ESE,25.3,38.0,N/A,,Overcast,120,2013-02-21 09:00:00
9:30 AM,41.0,35.6,81,29.98,6.2,ESE,23.0,-,N/A,,Overcast,110,2013-02-21 09:30:00
10:00 AM,41.0,35.6,81,29.98,6.2,ESE,23.0,-,N/A,,Overcast,110,2013-02-21 10:00:00
10:30 AM,41.0,35.6,81,29.98,6.2,ESE,23.0,-,N/A,,Overcast,110,2013-02-21 10:30:00
11:00 AM,41.0,35.6,81,30.01,6.2,ESE,23.0,-,N/A,,Overcast,110,2013-02-21 11:00:00
11:30 AM,41.0,35.6,81,30.01,6.2,ESE,24.2,35.7,N/A,,Mostly Cloudy,110,2013-02-21 11:30:00
12:00 PM,40,35,77,30.04,12,ESE,22.4,,,,Overcast,110,2013-02-21 12:00:00
12:00 PM,41.0,35.6,81,30.01,6.2,ESE,23.0,-,N/A,,Mostly Cloudy,110,2013-02-21 12:00:00
12:30 PM,41.0,33.8,76,30.01,6.2,ESE,23.0,34.5,N/A,,Mostly Cloudy,110,2013-02-21 12:30:00
1:00 PM,41.0,33.8,76,29.98,6.2,ESE,25.3,-,N/A,,Overcast,110,2013-02-21 13:00:00
1:30 PM,41.0,33.8,76,29.98,6.2,ESE,19.6,-,N/A,,Overcast,110,2013-02-21 13:30:00
2:00 PM,41.0,33.8,76,29.98,6.2,ESE,24.2,35.7,N/A,,Overcast,110,2013-02-21 14:00:00
2:30 PM,41.0,33.8,76,29.98,6.2,ESE,24.2,-,N/A,,Overcast,110,2013-02-21 14:30:00
3:00 PM,41.0,33.8,76,29.98,6.2,ESE,21.9,-,N/A,,Overcast,110,2013-02-21 15:00:00
3:30 PM,41.0,33.8,76,29.98,6.2,ESE,23.0,-,N/A,,Mostly Cloudy,110,2013-02-21 15:30:00
4:00 PM,39.2,33.8,81,29.98,6.2,ESE,18.4,-,N/A,,Mostly Cloudy,120,2013-02-21 16:00:00
4:30 PM,39.2,33.8,81,29.98,6.2,ESE,23.0,-,N/A,,Mostly Cloudy,120,2013-02-21 16:30:00
5:00 PM,39.2,32.0,75,29.98,6.2,ESE,19.6,-,N/A,,Mostly Cloudy,120,2013-02-21 17:00:00
5:30 PM,39.2,30.2,70,29.98,6.2,ESE,23.0,-,N/A,,Mostly Cloudy,110,2013-02-21 17:30:00
6:00 PM,39,32,66,30.02,12,ESE,20.1,,,,Mostly Cloudy,110,2013-02-21 18:00:00
6:00 PM,39.2,32.0,75,29.98,6.2,ESE,19.6,-,N/A,,Mostly Cloudy,110,2013-02-21 18:00:00
6:30 PM,39.2,32.0,75,29.98,6.2,ESE,20.7,-,N/A,,Mostly Cloudy,110,2013-02-21 18:30:00
7:00 PM,39.2,30.2,70,30.01,6.2,ESE,21.9,-,N/A,,Mostly Cloudy,110,2013-02-21 19:00:00
7:30 PM,39.2,32.0,75,30.01,6.2,East,21.9,-,N/A,,Mostly Cloudy,100,2013-02-21 19:30:00
8:00 PM,39.2,30.2,70,30.01,6.2,ESE,21.9,-,N/A,,Mostly Cloudy,120,2013-02-21 20:00:00
8:30 PM,37.4,30.2,75,30.01,6.2,ESE,21.9,-,N/A,,Mostly Cloudy,110,2013-02-21 20:30:00
9:00 PM,37.4,30.2,75,30.01,6.2,East,21.9,-,N/A,,Mostly Cloudy,100,2013-02-21 21:00:00
9:30 PM,37.4,30.2,75,30.01,6.2,ESE,17.3,-,N/A,,Mostly Cloudy,110,2013-02-21 21:30:00
10:00 PM,37.4,28.4,70,30.01,6.2,East,21.9,33.4,N/A,,Mostly Cloudy,100,2013-02-21 22:00:00
10:30 PM,37.4,28.4,70,30.01,6.2,ESE,23.0,34.5,N/A,,Mostly Cloudy,120,2013-02-21 22:30:00
11:00 PM,35.6,30.2,81,30.01,6.2,ESE,21.9,-,N/A,,Mostly Cloudy,120,2013-02-21 23:00:00
11:30 PM,35.6,28.4,75,30.01,6.2,ESE,18.4,-,N/A,,Mostly Cloudy,110,2013-02-21 23:30:00